Time,TemperatureF,DewpointF,PressureIn,WindDirection,WindDirectionDegrees,WindSpeedMPH,WindSpeedGustMPH,Humidity,HourlyPrecipIn,Conditions,Clouds,dailyrainin,SoftwareType,DateUTC
2013-04-30 00:08:00,55.2,54.9,29.67,SE,135,0.0,-999.0,99,-99.99,,,0.00,Acu-Link.com,2013-04-30 05:08:00,
2013-04-30 00:23:00,54.7,54.4,29.67,SE,135,0.0,-999.0,99,-99.99,,,0.00,Acu-Link.com,2013-04-30 05:23:00,
2013-04-30 00:38:00,55.0,54.7,29.66,SE,135,0.0,-999.0,99,-99.99,,,0.00,Acu-Link.com,2013-04-30 05:38:00,
2013-04-30 00:53:00,54.0,53.7,29.66,SE,135,0.0,-999.0,99,-99.99,,,0.00,Acu-Link.com,2013-04-30 05:53:00,
2013-04-30 01:08:00,53.1,52.8,29.66,SE,135,0.0,-999.0,99,-99.99,,,0.00,Acu-Link.com,2013-04-30 06:08:00,
2013-04-30 01:23:00,52.7,52.4,29.66,SE,135,0.0,-999.0,99,-99.99,,,0.00,Acu-Link.com,2013-04-30 06:23:00,
2013-04-30 01:39:00,52.2,51.9,29.66,SE,135,0.0,-999.0,99,-99.99,,,0.00,Acu-Link.com,2013-04-30 06:39:00,
2013-04-30 01:54:00,51.4,51.1,29.66,SE,135,0.0,-999.0,99,-99.99,,,0.00,Acu-Link.com,2013-04-30 06:54:00,
2013-04-30 02:09:00,51.3,51.0,29.66,SE,135,0.0,-999.0,99,-99.99,,,0.00,Acu-Link.com,2013-04-30 07:09:00,
2013-04-30 02:24:00,50.9,50.6,29.66,SE,135,2.2,-999.0,99,-99.99,,,0.00,Acu-Link.com,2013-04-30 07:24:00,
2013-04-30 02:39:00,50.2,49.9,29.66,SE,135,0.0,-999.0,99,-99.99,,,0.00,Acu-Link.com,2013-04-30 07:39:00,
2013-04-30 02:54:00,49.8,49.5,29.66,SE,135,0.0,-999.0,99,-99.99,,,0.00,Acu-Link.com,2013-04-30 07:54:00,
2013-04-30 03:09:00,50.0,49.7,29.66,SE,135,0.0,-999.0,99,-99.99,,,0.00,Acu-Link.com,2013-04-30 08:09:00,
2013-04-30 03:25:00,50.9,50.6,29.66,SE,135,0.0,-999.0,99,-99.99,,,0.00,Acu-Link.com,2013-04-30 08:25:00,
2013-04-30 03:40:00,50.5,50.2,29.67,SE,135,0.0,-999.0,99,-99.99,,,0.00,Acu-Link.com,2013-04-30 08:40:00,
2013-04-30 03:55:00,50.2,49.9,29.67,SE,135,0.0,-999.0,99,-99.99,,,0.00,Acu-Link.com,2013-04-30 08:55:00,
2013-04-30 04:10:00,49.1,48.8,29.67,SE,135,0.0,-999.0,99,-99.99,,,0.00,Acu-Link.com,2013-04-30 09:10:00,
2013-04-30 04:25:00,49.8,49.5,29.67,SE,135,0.0,-999.0,99,-99.99,,,0.00,Acu-Link.com,2013-04-30 09:25:00,
2013-04-30 04:40:00,49.3,49.0,29.67,SE,135,0.0,-999.0,99,-99.99,,,0.00,Acu-Link.com,2013-04-30 09:40:00,
2013-04-30 04:55:00,49.6,49.3,29.67,SE,135,0.0,-999.0,99,-99.99,,,0.00,Acu-Link.com,2013-04-30 09:55:00,
2013-04-30 05:10:00,48.7,48.4,29.69,SE,135,0.0,-999.0,99,-99.99,,,0.00,Acu-Link.com,2013-04-30 10:10:00,
2013-04-30 05:25:00,48.6,48.3,29.70,SE,135,0.0,-999.0,99,-99.99,,,0.00,Acu-Link.com,2013-04-30 10:25:00,
2013-04-30 05:40:00,48.0,47.7,29.69,SE,135,0.0,-999.0,99,-99.99,,,0.00,Acu-Link.com,2013-04-30 10:40:00,
2013-04-30 05:55:00,47.8,47.5,29.69,SE,135,0.0,-999.0,99,-99.99,,,0.00,Acu-Link.com,2013-04-30 10:55:00,
2013-04-30 06:10:00,47.8,47.5,29.70,SE,135,0.0,-999.0,99,-99.99,,,0.00,Acu-Link.com,2013-04-30 11:10:00,
2013-04-30 06:26:00,48.9,48.6,29.71,SE,135,0.0,-999.0,99,-99.99,,,0.00,Acu-Link.com,2013-04-30 11:26:00,
2013-04-30 10:26:00,74.3,74.0,29.75,SE,135,3.7,-999.0,99,-99.99,,,0.00,Acu-Link.com,2013-04-30 15:26:00,
2013-04-30 10:41:00,75.6,74.4,29.75,SE,135,3.7,-999.0,96,-99.99,,,0.00,Acu-Link.com,2013-04-30 15:41:00,
2013-04-30 10:56:00,75.9,73.4,29.75,SW,225,0.0,-999.0,92,-99.99,,,0.00,Acu-Link.com,2013-04-30 15:56:00,
2013-04-30 11:11:00,76.6,76.0,29.75,SE,135,4.2,-999.0,98,-99.99,,,0.00,Acu-Link.com,2013-04-30 16:11:00,
2013-04-30 11:26:00,76.8,74.3,29.75,ESE,112,4.2,-999.0,92,-99.99,,,0.00,Acu-Link.com,2013-04-30 16:26:00,
2013-04-30 11:41:00,77.4,72.2,29.74,SE,135,5.3,-999.0,84,-99.99,,,0.00,Acu-Link.com,2013-04-30 16:41:00,
2013-04-30 11:56:00,77.9,70.8,29.73,SSE,157,3.7,-999.0,79,-99.99,,,0.00,Acu-Link.com,2013-04-30 16:56:00,
2013-04-30 12:12:00,78.3,74.1,29.72,SE,135,4.2,-999.0,87,-99.99,,,0.00,Acu-Link.com,2013-04-30 17:12:00,
2013-04-30 12:27:00,77.5,73.0,29.71,SE,135,2.7,-999.0,86,-99.99,,,0.00,Acu-Link.com,2013-04-30 17:27:00,
2013-04-30 12:42:00,78.1,73.9,29.71,ESE,112,5.3,-999.0,87,-99.99,,,0.00,Acu-Link.com,2013-04-30 17:42:00,
2013-04-30 12:57:00,78.1,72.5,29.70,ESE,112,4.2,-999.0,83,-99.99,,,0.00,Acu-Link.com,2013-04-30 17:57:00,
2013-04-30 13:12:00,79.2,71.7,29.70,East,90,2.2,-999.0,78,-99.99,,,0.00,Acu-Link.com,2013-04-30 18:12:00,
2013-04-30 13:27:00,79.2,75.0,29.70,ESE,112,6.3,-999.0,87,-99.99,,,0.00,Acu-Link.com,2013-04-30 18:27:00,
2013-04-30 13:42:00,78.6,73.7,29.70,ESE,112,3.7,-999.0,85,-99.99,,,0.00,Acu-Link.com,2013-04-30 18:42:00,
2013-04-30 13:57:00,78.6,73.7,29.70,ESE,112,6.3,-999.0,85,-99.99,,,0.00,Acu-Link.com,2013-04-30 18:57:00,
2013-04-30 14:12:00,78.8,75.9,29.70,SE,135,3.2,-999.0,91,-99.99,,,0.00,Acu-Link.com,2013-04-30 19:12:00,
2013-04-30 14:28:00,79.0,72.7,29.70,ESE,112,3.7,-999.0,81,-99.99,,,0.00,Acu-Link.com,2013-04-30 19:28:00,
2013-04-30 14:43:00,79.5,69.3,29.69,South,180,6.8,-999.0,71,-99.99,,,0.00,Acu-Link.com,2013-04-30 19:43:00,
2013-04-30 14:58:00,80.2,70.7,29.71,SSW,202,3.7,-999.0,73,-99.99,,,0.00,Acu-Link.com,2013-04-30 19:58:00,
2013-04-30 15:14:00,79.7,69.9,29.69,SSE,157,4.2,-999.0,72,-99.99,,,0.00,Acu-Link.com,2013-04-30 20:14:00,
2013-04-30 15:32:00,80.6,69.9,29.69,SE,135,6.3,-999.0,70,-99.99,,,0.00,Acu-Link.com,2013-04-30 20:32:00,
2013-04-30 15:48:00,81.0,71.9,29.69,ESE,112,6.3,-999.0,74,-99.99,,,0.00,Acu-Link.com,2013-04-30 20:48:00,
2013-04-30 16:03:00,79.9,72.8,29.68,SE,135,3.7,-999.0,79,-99.99,,,0.00,Acu-Link.com,2013-04-30 21:03:00,
2013-04-30 16:20:00,80.4,72.1,29.67,SE,135,3.7,-999.0,76,-99.99,,,0.00,Acu-Link.com,2013-04-30 21:20:00,
2013-04-30 16:35:00,78.8,71.7,29.67,ESE,112,5.8,-999.0,79,-99.99,,,0.00,Acu-Link.com,2013-04-30 21:35:00,
2013-04-30 16:50:00,78.8,70.6,29.66,ESE,112,5.3,-999.0,76,-99.99,,,0.00,Acu-Link.com,2013-04-30 21:50:00,
2013-04-30 17:18:00,78.4,70.2,29.67,ESE,112,5.3,-999.0,76,-99.99,,,0.00,Acu-Link.com,2013-04-30 22:18:00,
2013-04-30 17:33:00,79.0,69.2,29.67,ESE,112,4.2,-999.0,72,-99.99,,,0.00,Acu-Link.com,2013-04-30 22:33:00,
2013-04-30 17:48:00,79.2,69.0,29.67,SE,135,4.7,-999.0,71,-99.99,,,0.00,Acu-Link.com,2013-04-30 22:48:00,
2013-04-30 18:17:00,76.3,67.8,29.68,ESE,112,4.2,-999.0,75,-99.99,,,0.00,Acu-Link.com,2013-04-30 23:17:00,
2013-04-30 18:32:00,75.6,67.9,29.68,ESE,112,3.7,-999.0,77,-99.99,,,0.00,Acu-Link.com,2013-04-30 23:32:00,
2013-04-30 18:47:00,74.3,67.7,29.68,ESE,112,0.0,-999.0,80,-99.99,,,0.00,Acu-Link.com,2013-04-30 23:47:00,
2013-04-30 19:02:00,73.0,67.2,29.69,ESE,112,0.0,-999.0,82,-99.99,,,0.00,Acu-Link.com,2013-05-01 00:02:00,
2013-04-30 19:17:00,72.0,67.2,29.69,ESE,112,2.7,-999.0,85,-99.99,,,0.00,Acu-Link.com,2013-05-01 00:17:00,
2013-04-30 19:33:00,71.4,66.6,29.69,ESE,112,4.7,-999.0,85,-99.99,,,0.00,Acu-Link.com,2013-05-01 00:33:00,
2013-04-30 19:48:00,69.8,66.1,29.69,SE,135,4.2,-999.0,88,-99.99,,,0.00,Acu-Link.com,2013-05-01 00:48:00,
2013-04-30 20:05:00,69.8,65.7,29.69,SE,135,4.7,-999.0,87,-99.99,,,0.00,Acu-Link.com,2013-05-01 01:05:00,
2013-04-30 20:24:00,70.0,65.9,29.70,SE,135,3.2,-999.0,87,-99.99,,,0.00,Acu-Link.com,2013-05-01 01:24:00,
2013-04-30 20:39:00,69.4,65.4,29.70,SE,135,3.7,-999.0,87,-99.99,,,0.00,Acu-Link.com,2013-05-01 01:39:00,
2013-04-30 20:54:00,68.5,64.8,29.71,SE,135,3.2,-999.0,88,-99.99,,,0.00,Acu-Link.com,2013-05-01 01:54:00,
2013-04-30 21:09:00,67.3,64.9,29.73,SE,135,2.7,-999.0,92,-99.99,,,0.00,Acu-Link.com,2013-05-01 02:09:00,
2013-04-30 21:25:00,66.0,65.1,29.73,SE,135,3.2,-999.0,97,-99.99,,,0.00,Acu-Link.com,2013-05-01 02:25:00,
2013-04-30 21:40:00,64.6,64.3,29.72,SE,135,2.7,-999.0,99,-99.99,,,0.00,Acu-Link.com,2013-05-01 02:40:00,
2013-04-30 22:00:00,64.2,63.9,29.73,SE,135,2.7,-999.0,99,-99.99,,,0.00,Acu-Link.com,2013-05-01 03:00:00,
2013-04-30 22:16:00,63.9,63.6,29.74,SSE,157,2.7,-999.0,99,-99.99,,,0.00,Acu-Link.com,2013-05-01 03:16:00,
2013-04-30 22:42:00,63.5,63.2,29.72,SE,135,2.2,-999.0,99,-99.99,,,0.00,Acu-Link.com,2013-05-01 03:42:00,
2013-04-30 22:57:00,63.0,62.7,29.75,SSE,157,1.7,-999.0,99,-99.99,,,0.00,Acu-Link.com,2013-05-01 03:57:00,
2013-04-30 23:12:00,63.0,62.7,29.73,SSE,157,2.2,-999.0,99,-99.99,,,0.00,Acu-Link.com,2013-05-01 04:12:00,
2013-04-30 23:28:00,62.2,61.9,29.73,SSE,157,2.2,-999.0,99,-99.99,,,0.00,Acu-Link.com,2013-05-01 04:28:00,
2013-04-30 23:43:00,61.9,61.6,29.74,SSE,157,2.2,-999.0,99,-99.99,,,0.00,Acu-Link.com,2013-05-01 04:43:00,
2013-04-30 23:58:00,61.5,61.2,29.74,SSE,157,2.7,-999.0,99,-99.99,,,0.00,Acu-Link.com,2013-05-01 04:58:00,